Location: Prague
(50.0830°N, 14.4670°E)
Time: 08:19:44
(UTC+01:00)

XW-2F - Pass Details

Date: 02 December 2021
Orbit: 494 x 515 km, 97.5° (Epoch: 18 January)

Event Time Altitude Azimuth Distance (km) Brightness Sun altitude
Rises 17:45:06 0° 183° (S) 2,598 ? -15.7°
Reaches altitude 10° 17:47:16 10° 191° (S) 1,723 ? -16.0°
Maximum altitude 17:50:47 40° 262° (W) 766 ? -16.6°
Drops below altitude 10° 17:54:21 10° 333° (NNW) 1,750 ? -17.1°
Sets 17:56:34 0° 341° (NNW) 2,646 ? -17.5°
